Albuquerque, NM

6:57 AM MDT on September 24, 2017 (GMT -0600)
Albuquerque International Sunport

Weather History for KABQ - October, 2011

Change the Weather History Date:

Thursday, October 6, 2011

  Actual Average Record
Temperature  
Mean Temperature 61 °F 61 °F  
Max Temperature 74 °F 73 °F 87 °F (1956)
Min Temperature 48 °F 50 °F 29 °F (1915)
Degree Days  
Heating Degree Days 4 4  
Month to date heating degree days 16 21  
Since 1 July heating degree days 16 47  
Cooling Degree Days 0 1  
Month to date cooling degree days 8 6  
Year to date cooling degree days 1714 1318  
Growing Degree Days 10 (Base 50)    
Moisture  
Dew Point 37 °F    
Average Humidity 43    
Maximum Humidity 66    
Minimum Humidity 19    
Precipitation  
Precipitation 0.00 in 0.04 in 1.15 in (1901)
Month to date precipitation 1.02 0.25  
Year to date precipitation 2.93 7.61  
Snow  
Snow 0.00 in - - ()
Month to date snowfall 0.0  
Since 1 July snowfall 0.0  
Since 1 September snowfall 0.0  
Snow Depth 0.00 in    
Sea Level Pressure  
Sea Level Pressure 29.69 in    
Wind  
Wind Speed 17 mph (SSW)    
Max Wind Speed 36 mph    
Max Gust Speed 43 mph    
Visibility 10 miles    
Events      
T = Trace of Precipitation, MM = Missing Value Source: NWS Daily Summary

Daily Weather History Graph

Daily Weather History Graph

Search for Another Location

Airport or City:

Trip Planner

Search our weather history database for the weather conditions in past years. The results will help you decide how hot, cold, wet, or windy it might be!

Date:

Astronomy

Oct. 06, 2011 Rise Set
Actual Time 7:04 AM MDT 6:43 PM MDT
Civil Twilight 6:39 AM MDT 7:08 PM MDT
Nautical Twilight 6:10 AM MDT 7:38 PM MDT
Astronomical Twilight 5:40 AM MDT 8:07 PM MDT
Moon 3:48 PM MDT (10/6) 2:07 AM MDT (10/6)
Length of Visible Light 12h 29m
Length of Day
11h 38m
Waxing Gibbous, 76% of the Moon is Illuminated
Oct 6
Waxing Gibbous
Oct 11
Full
Oct 19
Last Quarter
Oct 26
New
Nov 2
First Quarter

Hourly Weather History & Observations

Time (MDT) Temp. Dew Point Humidity Pressure Visibility Wind Dir Wind Speed Gust Speed Precip Events Conditions
12:56 AM 55.0 °F 44.1 °F 67% 29.75 in 10.0 mi ESE 8.1 mph - N/A   Partly Cloudy
1:56 AM 54.0 °F 43.0 °F 66% 29.73 in 10.0 mi SE 6.9 mph - N/A   Partly Cloudy
2:56 AM 55.0 °F 42.1 °F 62% 29.70 in 10.0 mi SSE 6.9 mph - N/A   Partly Cloudy
3:56 AM 57.0 °F 42.1 °F 57% 29.67 in 10.0 mi South 8.1 mph - N/A   Mostly Cloudy
4:56 AM 57.9 °F 41.0 °F 53% 29.65 in 10.0 mi South 13.8 mph - N/A   Mostly Cloudy
5:56 AM 57.9 °F 41.0 °F 53% 29.65 in 10.0 mi SSW 9.2 mph - N/A   Mostly Cloudy
6:56 AM 57.9 °F 39.0 °F 49% 29.64 in 10.0 mi South 9.2 mph - N/A   Mostly Cloudy
7:56 AM 60.1 °F 39.0 °F 46% 29.65 in 10.0 mi South 15.0 mph 20.7 mph N/A   Mostly Cloudy
8:56 AM 61.0 °F 39.9 °F 46% 29.65 in 10.0 mi South 27.6 mph 34.5 mph N/A   Mostly Cloudy
9:56 AM 66.0 °F 39.0 °F 37% 29.62 in 10.0 mi South 25.3 mph 35.7 mph N/A   Mostly Cloudy
10:56 AM 66.9 °F 34.0 °F 30% 29.61 in 10.0 mi South 27.6 mph 38.0 mph N/A   Scattered Clouds
11:56 AM 69.1 °F 30.9 °F 24% 29.60 in 10.0 mi SSW 24.2 mph 34.5 mph N/A   Scattered Clouds
12:56 PM 70.0 °F 30.0 °F 23% 29.59 in 10.0 mi South 27.6 mph 40.3 mph N/A   Scattered Clouds
1:56 PM 73.0 °F 28.0 °F 19% 29.56 in 10.0 mi SSW 27.6 mph 40.3 mph N/A   Scattered Clouds
2:56 PM 72.0 °F 30.0 °F 21% 29.56 in 10.0 mi SSW 20.7 mph 34.5 mph N/A   Scattered Clouds
3:56 PM 71.1 °F 34.0 °F 26% 29.57 in 10.0 mi SW 18.4 mph 26.5 mph N/A   Mostly Cloudy
4:21 PM 60.8 °F 39.2 °F 45% 29.79 in 10.0 mi North 20.7 mph 40.3 mph N/A   Mostly Cloudy
4:56 PM 57.9 °F 39.0 °F 49% 29.65 in 10.0 mi NNW 18.4 mph 26.5 mph N/A   Mostly Cloudy
5:56 PM 54.0 °F 37.0 °F 53% 29.70 in 10.0 mi NNW 19.6 mph - N/A   Mostly Cloudy
6:56 PM 51.1 °F 36.0 °F 56% 29.74 in 10.0 mi North 18.4 mph 28.8 mph N/A   Mostly Cloudy
7:56 PM 50.0 °F 36.0 °F 59% 29.78 in 10.0 mi North 16.1 mph - N/A   Mostly Cloudy
8:56 PM 48.9 °F 35.1 °F 59% 29.82 in 10.0 mi North 16.1 mph - N/A   Mostly Cloudy
9:56 PM 48.9 °F 35.1 °F 59% 29.82 in 10.0 mi North 11.5 mph - N/A   Scattered Clouds
10:56 PM 48.9 °F 34.0 °F 56% 29.82 in 10.0 mi North 9.2 mph - N/A   Mostly Cloudy
11:56 PM 48.0 °F 34.0 °F 58% 29.81 in 10.0 mi NNE 10.4 mph - N/A   Mostly Cloudy